GW5292 Weather Reports


time (UTC)temp
C
wind
direction
speed
KPH
gust
KPH
rain 1hr
cm
rain 24hr
cm
rain mn
cm
humidity
%
barometer
mb
20260904144508 26 190 1.6 4.8 0.00 0.51 0.00 76 1013.6
20260904143006 25 209 1.6 6.4 0.00 0.51 0.00 77 1013.6
20260904141509 24 184 1.6 3.2 0.00 0.51 0.00 81 1013.6
20260904140011 24 196 0.0 8.0 0.00 0.51 0.00 80 1013.7
20260904134511 24 187 3.2 6.4 0.00 0.51 0.00 81 1013.6
20260904133013 23 182 1.6 4.8 0.00 0.51 0.00 82 1013.6
20260904131512 23 186 1.6 4.8 0.00 0.51 0.00 86 1013.7
20260904130012 23 215 1.6 3.2 0.00 0.51 0.00 86 1013.7
20260904124513 23 181 1.6 3.2 0.00 0.51 0.00 87 1013.8
20260904123014 22 198 0.0 3.2 0.00 0.51 0.00 89 1013.7
20260904121513 22 192 0.0 3.2 0.00 0.51 0.00 91 1013.5
20260904120017 21 207 1.6 3.2 0.00 0.51 0.00 93 1013.8
20260904114515 21 194 0.0 3.2 0.00 0.51 0.00 94 1013.6
20260904113020 21 198 0.0 3.2 0.00 0.51 0.00 95 1013.4
20260904111519 20 195 1.6 3.2 0.00 0.51 0.00 95 1013.4
20260904110036 20 199 0.0 0.0 0.00 0.53 0.00 94 1013.3
20260904104518 21 199 0.0 1.6 0.00 0.53 0.00 94 1013.0
20260904103023 21 199 0.0 3.2 0.00 0.53 0.00 93 1012.8
20260904101524 21 197 1.6 3.2 0.00 0.56 0.00 94 1012.8
20260904100025 21 201 1.6 3.2 0.00 0.61 0.00 94 1012.7
20260904094523 21 189 1.6 3.2 0.00 0.64 0.00 94 1012.8
20260904093023 21 189 1.6 3.2 0.00 0.64 0.00 93 1012.9
20260904091525 21 207 1.6 4.8 0.00 0.64 0.00 93 1012.9
20260904090028 21 203 3.2 4.8 0.00 0.64 0.00 94 1012.9
20260904084526 21 188 1.6 3.2 0.00 0.66 0.00 95 1012.8
20260904083029 22 209 1.6 3.2 0.00 0.74 0.00 95 1012.6
20260904081526 22 198 3.2 4.8 0.00 0.84 0.00 96 1012.7
20260904080008 22 199 3.2 3.2 0.00 0.91 0.00 97 1012.4
20260904074515 21 155 0.0 1.6 0.00 1.02 0.00 97 1012.5
20260904073017 22 42 0.0 0.0 0.00 1.09 0.00 96 1012.4
20260904071522 22 42 0.0 0.0 0.00 1.24 0.00 96 1012.2
20260904070043 22 42 0.0 0.0 0.00 1.32 0.00 96 1011.7
20260904064508 22 42 0.0 0.0 0.00 1.32 0.00 96 1011.7
20260904063016 22 41 0.0 0.0 0.00 1.32 0.00 95 1011.3
20260904061524 22 41 0.0 0.0 0.00 1.32 0.00 96 1011.6
20260904060032 22 41 0.0 0.0 0.00 1.32 0.00 96 1011.8
20260904054533 22 41 0.0 0.0 0.00 1.32 0.00 96 1011.8
20260904053013 22 41 0.0 0.0 0.00 1.32 0.00 95 1012.1
20260904051517 23 41 0.0 0.0 0.00 1.47 0.00 95 1012.2
20260904050026 23 42 0.0 0.0 0.00 2.13 0.00 95 1012.3
20260904044535 23 42 0.0 0.0 0.43 2.77 0.00 95 1012.3
20260904043035 23 42 0.0 0.0 0.51 3.07 0.00 94 1012.5
20260904041516 23 42 0.0 4.8 0.51 3.07 0.00 94 1012.5
20260904040023 24 338 0.0 3.2 0.51 3.07 0.00 92 1012.8
20260904034544 25 212 4.8 8.0 0.08 2.64 2.64 88 1013.2
20260904033034 24 208 0.0 3.2 0.00 2.57 2.57 87 1012.7
20260904031534 24 208 0.0 0.0 0.00 2.57 2.57 88 1013.1
20260904030020 24 208 0.0 1.6 0.00 2.57 2.57 88 1013.2
20260904024526 24 208 0.0 1.6 0.00 2.57 2.57 89 1013.3
20260904023029 24 208 0.0 1.6 0.00 2.57 2.57 88 1012.9
20260904021531 25 208 0.0 0.0 0.00 2.57 2.57 86 1012.9
20260904020036 25 208 0.0 0.0 0.00 2.57 2.57 84 1013.0
20260904014523 25 208 0.0 3.2 0.00 2.57 2.57 83 1013.4
20260904013027 26 208 0.0 0.0 0.00 2.57 2.57 81 1013.5
20260904011557 26 208 1.6 4.8 0.00 2.57 2.57 81 1013.3
20260904010036 25 213 1.6 3.2 0.00 2.57 2.57 82 1013.5
20260904004532 26 208 0.0 3.2 0.00 2.57 2.57 82 1013.5
20260904003027 26 208 1.6 3.2 0.00 2.57 2.57 81 1013.7
20260904001506 26 213 0.0 3.2 0.00 2.57 2.57 80 1013.6
20260904000013 26 200 1.6 3.2 0.00 2.57 2.57 80 1013.0
20260903234534 26 200 0.0 0.0 0.00 2.57 2.57 81 1012.9
20260903233026 26 200 0.0 3.2 0.00 2.57 2.57 79 1013.2
20260903231527 26 200 1.6 3.2 0.00 2.57 2.57 80 1013.0
20260903230012 27 199 0.0 0.0 0.00 2.57 2.57 79 1013.1
20260903224511 27 199 0.0 1.6 0.00 2.57 2.57 76 1013.2
20260903223017 28 199 0.0 3.2 0.00 2.57 2.57 73 1012.8
20260903221524 28 198 1.6 4.8 0.00 2.57 2.57 71 1012.5
20260903220031 28 213 3.2 6.4 0.00 2.57 2.57 71 1012.8
20260903214509 29 194 1.6 4.8 0.00 2.57 2.57 71 1012.5
20260903213019 29 208 0.0 3.2 0.00 2.57 2.57 70 1012.4
20260903211521 30 208 1.6 4.8 0.00 2.57 2.57 67 1012.1
20260903210027 30 9 0.0 3.2 0.00 2.57 2.57 67 1012.2
20260903204530 30 153 0.0 3.2 0.00 2.57 2.57 68 1012.4
20260903203026 30 189 0.0 4.8 0.00 2.59 2.57 69 1012.5
20260903201531 29 212 3.2 4.8 0.00 2.59 2.57 68 1012.6
20260903200025 28 165 1.6 4.8 0.00 2.59 2.57 71 1012.8
20260903194530 28 194 1.6 4.8 0.00 2.59 2.57 71 1013.0
20260903193017 28 180 1.6 8.0 0.00 2.59 2.57 70 1013.1
20260903191515 28 234 4.8 8.0 0.00 2.59 2.57 68 1013.3
20260903190026 28 195 3.2 9.7 0.00 2.59 2.57 69 1013.5
20260903184531 28 222 6.4 8.0 0.00 2.59 2.57 70 1013.6
20260903183039 28 188 3.2 9.7 0.00 2.59 2.57 70 1013.8
20260903181515 28 190 4.8 11.3 0.00 2.59 2.57 70 1014.1
20260903180006 28 185 3.2 11.3 0.00 2.59 2.57 73 1014.1
20260903174505 27 191 6.4 11.3 0.00 2.59 2.57 72 1014.4
20260903173006 27 198 3.2 9.7 0.00 2.59 2.57 75 1014.3
20260903171509 27 130 3.2 8.0 0.00 2.62 2.57 77 1014.5
20260903170018 27 202 4.8 9.7 0.00 2.64 2.57 76 1014.8
20260903164505 26 181 8.0 11.3 0.00 2.72 2.57 78 1014.9
20260903163005 26 183 6.4 9.7 0.00 2.74 2.57 80 1015.2
20260903161507 26 158 6.4 11.3 0.00 2.74 2.57 80 1015.4
20260903160014 26 199 3.2 11.3 0.00 2.74 2.57 83 1015.5
20260903154523 25 196 4.8 8.0 0.00 2.74 2.57 88 1015.7
20260903153003 23 194 6.4 8.0 0.00 2.74 2.57 88 1016.0
20260903151506 23 182 3.2 4.8 0.00 2.74 2.57 90 1016.5
20260903150023 23 185 1.6 6.4 0.00 2.74 2.57 91 1016.4